Flag for Israel Weather past 2 weeks in Hadera, Israel

Now
77 °F

Sunny.


Feels Like: 79 °F
Forecast: 72 / 96 °F
Wind: 15 mph from North

Location: Dov Airport

Current Time: May 26, 2015 at 6:53:48 PM

Latest Report: May 26, 2015 at 5:50 PM


Visibility: 10 mi

Pressure: 29.89 "Hg

Humidity: 74%

Dew point: 68 °F

Location of HaderaLocation

Historic Weather in Hadera — Graph

°F

Hadera temperature yesterday

Maximum temperature yesterday: 88 °F (at 12:50 PM)
Minimum temperature yesterday: 72 °F (at 5:50 AM)
Average temperature yesterday: 81 °F

Past Weeks' High & Low Weather Summary

 TemperatureHumidityPressure
High104 °F (May 18, 12:50 PM)88% (May 13, 4:55 AM)30.15 "Hg (May 13, 4:55 AM)
Low63 °F (May 16, 5:50 AM)6% (May 18, 12:50 PM)29.68 "Hg (May 19, 4:50 AM)
Average75 °F65%29.89 "Hg
* Reported May 11 5:50 PM — May 26 5:50 PM, Hadera, Weather by CustomWeather, © 2015

Note: Actual official high and low records may vary slightly from our data, if they occured in-between our weather recording intervals... More about our weather records

Advertising

Hadera weather history for previous 24 hours

 ConditionsComfort  
Time TempWeatherWind HumidityBarometerVisibility
5:50 PM
Tue, May 26
77 °FSunny.15 mph74%29.89 "Hg10 mi
4:50 PM79 °FSunny.13 mph70%29.89 "Hg10 mi
3:50 PM79 °FSunny.13 mph70%29.89 "Hg10 mi
2:50 PM77 °FSunny.13 mph69%29.86 "Hg10 mi
1:50 PM79 °FSunny.6 mph70%29.89 "Hg10 mi
12:50 PM77 °FSunny.8 mph74%29.89 "Hg10 mi
11:50 AM77 °FPassing clouds.7 mph69%29.89 "HgN/A
10:50 AM77 °FPassing clouds.6 mph74%29.89 "HgN/A
9:50 AM77 °FSunny.6 mph74%29.89 "Hg10 mi
8:50 AM75 °FSunny.6 mph74%29.89 "Hg10 mi
7:50 AM77 °FSunny.3 mph57%29.89 "Hg10 mi
6:50 AM73 °FSunny.1 mph83%29.89 "Hg10 mi
5:50 AM72 °FClear.2 mph88%29.86 "Hg10 mi
10:50 PM
Mon, May 25
75 °FClear.5 mph83%29.80 "Hg10 mi
9:50 PM77 °FClear.5 mph79%29.83 "Hg10 mi
8:50 PM77 °FClear.5 mph79%29.80 "Hg10 mi
7:50 PM79 °FSunny.6 mph74%29.80 "Hg10 mi
6:50 PM81 °FSunny.9 mph66%29.80 "Hg10 mi
Weather by CustomWeather, © 2015

See weather overviewHow to use our weather pages